• In Romania
  • List of Countries
  • For 7 days
  • Water Temperature
  • Satellite Maps
  • Weather Map
  • Weather Widgets
  • user-avatar
    Login

    Hourly Weather Cyganovka

    Today, 20 July, Friday

    Time Temperature Precipitation Wind Pressure Humidity
    00:00 +20°C° 0 mm 2 mps 739 mmHg 89%
    01:00 +19°C° 0 mm 3 mps 739 mmHg 90%
    02:00 +19°C° 0 mm 3 mps 739 mmHg 90%
    03:00 +19°C° 0 mm 3 mps 739 mmHg 91%
    04:00 +19°C° 0 mm 3 mps 739 mmHg 90%
    05:00 +19°C° 0 mm 2 mps 739 mmHg 89%
    06:00 +20°C° 0 mm 2 mps 739 mmHg 89%
    07:00 +22°C° 0.1 mm 3 mps 740 mmHg 83%
    08:00 +24°C° 0.1 mm 3 mps 740 mmHg 78%
    09:00 +26°C° 0.1 mm 3 mps 740 mmHg 72%
    10:00 +27°C° 0.4 mm 3 mps 740 mmHg 68%
    11:00 +28°C° 0.4 mm 3 mps 740 mmHg 63%
    12:00 +29°C° 0.4 mm 3 mps 740 mmHg 59%
    13:00 +29°C° 0.5 mm 3 mps 740 mmHg 59%
    14:00 +29°C° 0.5 mm 3 mps 740 mmHg 59%
    15:00 +29°C° 0.5 mm 2 mps 740 mmHg 59%
    16:00 +28°C° 0.8 mm 2 mps 739 mmHg 66%
    17:00 +27°C° 0.8 mm 2 mps 739 mmHg 73%
    18:00 +26°C° 0.8 mm 2 mps 739 mmHg 80%
    19:00 +25°C° 0.1 mm 2 mps 739 mmHg 83%
    20:00 +24°C° 0.1 mm 2 mps 739 mmHg 87%
    21:00 +23°C° 0.1 mm 2 mps 739 mmHg 90%
    22:00 +21°C° 0 mm 2 mps 739 mmHg 91%
    23:00 +21°C° 0 mm 2 mps 739 mmHg 91%

    Tomorrow, 21 July, Saturday

    Time Temperature Precipitation Wind Pressure Humidity
    00:00 +20°C° 0 mm 2 mps 739 mmHg 92%
    01:00 +20°C° 0 mm 2 mps 739 mmHg 92%
    02:00 +20°C° 0 mm 2 mps 739 mmHg 93%
    03:00 +20°C° 0 mm 1 mps 739 mmHg 93%
    04:00 +21°C° 0 mm 1 mps 739 mmHg 93%
    05:00 +21°C° 0 mm 1 mps 739 mmHg 92%
    06:00 +20°C° 0 mm 2 mps 739 mmHg 92%
    07:00 +23°C° 0 mm 2 mps 739 mmHg 86%
    08:00 +24°C° 0 mm 2 mps 739 mmHg 81%
    09:00 +26°C° 0 mm 2 mps 739 mmHg 75%
    10:00 +27°C° 0 mm 2 mps 739 mmHg 71%
    11:00 +28°C° 0 mm 2 mps 739 mmHg 66%
    12:00 +29°C° 0 mm 2 mps 739 mmHg 61%
    13:00 +29°C° 0.4 mm 2 mps 739 mmHg 62%
    14:00 +30°C° 0.4 mm 2 mps 738 mmHg 62%
    15:00 +30°C° 0.4 mm 2 mps 738 mmHg 62%
    16:00 +29°C° 0.7 mm 2 mps 738 mmHg 65%
    17:00 +29°C° 0.7 mm 2 mps 739 mmHg 68%
    18:00 +29°C° 0.7 mm 1 mps 739 mmHg 70%
    19:00 +27°C° 0.2 mm 1 mps 739 mmHg 75%
    20:00 +26°C° 0.2 mm 1 mps 739 mmHg 80%
    21:00 +24°C° 0.2 mm 1 mps 739 mmHg 85%
    22:00 +24°C° 0 mm 1 mps 739 mmHg 86%
    23:00 +23°C° 0 mm 1 mps 739 mmHg 88%

    Day after tomorrow, 22 July, Sunday

    Time Temperature Precipitation Wind Pressure Humidity
    00:00 +23°C° 0 mm 1 mps 739 mmHg 89%
    01:00 +22°C° 0 mm 1 mps 739 mmHg 90%
    02:00 +22°C° 0 mm 1 mps 739 mmHg 91%
    03:00 +22°C° 0 mm 1 mps 739 mmHg 92%
    04:00 +22°C° 0.2 mm 1 mps 739 mmHg 91%
    05:00 +22°C° 0.2 mm 1 mps 739 mmHg 91%
    06:00 +23°C° 0.2 mm 1 mps 739 mmHg 90%
    07:00 +24°C° 0.5 mm 1 mps 740 mmHg 85%
    08:00 +25°C° 0.5 mm 2 mps 740 mmHg 80%
    09:00 +27°C° 0.5 mm 2 mps 740 mmHg 76%
    10:00 +28°C° 0.7 mm 2 mps 740 mmHg 71%
    11:00 +28°C° 0.7 mm 2 mps 740 mmHg 67%
    12:00 +29°C° 0.7 mm 2 mps 740 mmHg 63%
    13:00 +30°C° 0.2 mm 2 mps 740 mmHg 61%
    14:00 +30°C° 0.2 mm 2 mps 740 mmHg 59%
    15:00 +30°C° 0.2 mm 1 mps 739 mmHg 58%
    16:00 +30°C° 0.6 mm 2 mps 740 mmHg 61%
    17:00 +29°C° 0.6 mm 2 mps 740 mmHg 65%
    18:00 +29°C° 0.6 mm 2 mps 740 mmHg 68%
    19:00 +27°C° 0.2 mm 2 mps 740 mmHg 74%
    20:00 +26°C° 0.2 mm 2 mps 740 mmHg 80%
    21:00 +24°C° 0.2 mm 2 mps 740 mmHg 85%
    22:00 +24°C° 0 mm 2 mps 740 mmHg 87%
    23:00 +23°C° 0 mm 2 mps 740 mmHg 88%

    23 July, Monday

    Time Temperature Precipitation Wind Pressure Humidity
    00:00 +23°C° 0 mm 2 mps 740 mmHg 90%
    01:00 +23°C° 0.2 mm 2 mps 740 mmHg 90%
    02:00 +21°C° 0.2 mm 2 mps 740 mmHg 91%
    03:00 +21°C° 0.2 mm 2 mps 740 mmHg 92%
    04:00 +21°C° 0 mm 2 mps 740 mmHg 92%
    05:00 +23°C° 0 mm 2 mps 740 mmHg 92%
    06:00 +23°C° 0 mm 2 mps 740 mmHg 92%
    07:00 +24°C° 0.4 mm 3 mps 740 mmHg 88%
    08:00 +25°C° 0.4 mm 3 mps 741 mmHg 83%
    09:00 +26°C° 0.4 mm 3 mps 741 mmHg 79%
    10:00 +27°C° 0.3 mm 3 mps 741 mmHg 73%
    11:00 +28°C° 0.3 mm 3 mps 741 mmHg 68%
    12:00 +29°C° 0.3 mm 3 mps 741 mmHg 63%
    13:00 +30°C° 0.4 mm 3 mps 741 mmHg 62%
    14:00 +30°C° 0.4 mm 3 mps 741 mmHg 60%
    15:00 +30°C° 0.4 mm 3 mps 741 mmHg 59%
    16:00 +30°C° 0.7 mm 2 mps 741 mmHg 62%
    17:00 +29°C° 0.7 mm 2 mps 742 mmHg 65%
    18:00 +29°C° 0.7 mm 2 mps 742 mmHg 68%
    19:00 +27°C° 0.3 mm 2 mps 742 mmHg 73%
    20:00 +26°C° 0.3 mm 2 mps 742 mmHg 78%
    21:00 +24°C° 0.3 mm 2 mps 742 mmHg 83%
    22:00 +24°C° 0.2 mm 2 mps 743 mmHg 84%
    23:00 +23°C° 0.2 mm 2 mps 743 mmHg 86%

    24 July, Tuesday

    Time Temperature Precipitation Wind Pressure Humidity
    00:00 +23°C° 0.2 mm 2 mps 743 mmHg 87%
    01:00 +22°C° 0 mm 1 mps 743 mmHg 88%
    02:00 +22°C° 0 mm 1 mps 743 mmHg 89%
    03:00 +22°C° 0 mm 1 mps 743 mmHg 90%
    04:00 +22°C° 0 mm 1 mps 743 mmHg 90%
    05:00 +22°C° 0 mm 1 mps 743 mmHg 89%
    06:00 +23°C° 0 mm 1 mps 744 mmHg 89%
    07:00 +24°C° 0.7 mm 2 mps 744 mmHg 84%
    08:00 +25°C° 0.7 mm 2 mps 744 mmHg 79%
    09:00 +27°C° 0.7 mm 2 mps 744 mmHg 75%
    10:00 +28°C° 0.9 mm 2 mps 744 mmHg 71%
    11:00 +28°C° 0.9 mm 3 mps 744 mmHg 67%
    12:00 +29°C° 0.9 mm 3 mps 744 mmHg 63%
    13:00 +29°C° 1.4 mm 3 mps 744 mmHg 66%
    14:00 +28°C° 1.4 mm 4 mps 744 mmHg 69%
    15:00 +28°C° 1.4 mm 4 mps 745 mmHg 71%
    16:00 +27°C° 0.7 mm 4 mps 745 mmHg 76%
    17:00 +26°C° 0.7 mm 3 mps 745 mmHg 81%
    18:00 +25°C° 0.7 mm 3 mps 745 mmHg 85%
    19:00 +24°C° 0.4 mm 3 mps 745 mmHg 86%
    20:00 +22°C° 0.4 mm 3 mps 745 mmHg 87%
    21:00 +21°C° 0.4 mm 3 mps 745 mmHg 88%
    22:00 +21°C° 0.5 mm 2 mps 745 mmHg 87%
    23:00 +20°C° 0.5 mm 2 mps 745 mmHg 87%

    25 July, Wednesday

    Time Temperature Precipitation Wind Pressure Humidity
    00:00 +20°C° 0.5 mm 2 mps 745 mmHg 86%
    01:00 +20°C° 0.8 mm 3 mps 745 mmHg 87%
    02:00 +19°C° 0.8 mm 3 mps 745 mmHg 87%
    03:00 +19°C° 0.8 mm 4 mps 745 mmHg 88%
    04:00 +19°C° 0.9 mm 4 mps 745 mmHg 86%
    05:00 +19°C° 0.9 mm 5 mps 745 mmHg 85%
    06:00 +19°C° 0.9 mm 6 mps 745 mmHg 84%
    07:00 +19°C° 0.8 mm 6 mps 745 mmHg 84%
    08:00 +19°C° 0.8 mm 6 mps 745 mmHg 84%
    09:00 +19°C° 0.8 mm 6 mps 745 mmHg 84%
    10:00 +20°C° 0.1 mm 6 mps 745 mmHg 82%
    11:00 +21°C° 0.1 mm 6 mps 745 mmHg 81%
    12:00 +22°C° 0.1 mm 6 mps 745 mmHg 79%
    13:00 +24°C° 0.1 mm 6 mps 745 mmHg 76%
    14:00 +26°C° 0.1 mm 5 mps 746 mmHg 74%
    15:00 +27°C° 0.1 mm 5 mps 746 mmHg 71%
    16:00 +27°C° 0.9 mm 5 mps 746 mmHg 73%
    17:00 +27°C° 0.9 mm 4 mps 746 mmHg 75%
    18:00 +26°C° 0.9 mm 4 mps 746 mmHg 78%
    19:00 +25°C° 0.4 mm 4 mps 746 mmHg 80%
    20:00 +23°C° 0.4 mm 4 mps 747 mmHg 81%
    21:00 +21°C° 0.4 mm 3 mps 747 mmHg 83%
    22:00 +20°C° 0 mm 4 mps 747 mmHg 81%
    23:00 +19°C° 0 mm 4 mps 747 mmHg 79%
    Show more